GFSSW_250_spd_096.txt.gz
Wind_Speed
50 49 50 53 55 56 56 54 54 55 57 61 62 62 60 61 60 60 62 61 57 59 57 55 52 45 43 42 43 40 36 32 29 31 35 36 37 34 36 38 36 34 39 42 33
54 54 55 56 61 63 61 61 61 59 59 61 58 60 58 58 58 61 58 59 57 58 60 59 56 53 47 45 43 41 39 33 34 37 35 34 32 35 35 37 35 33 37 43 32
57 56 57 52 57 62 63 68 64 66 67 60 54 58 60 58 61 63 64 63 62 58 58 61 59 57 50 49 43 40 41 37 34 36 36 32 36 39 34 34 34 31 34 38 34
67 64 62 60 63 64 70 69 68 70 69 65 65 64 62 65 62 67 68 67 64 63 63 61 61 59 53 52 46 42 42 39 37 34 35 35 35 33 27 29 29 27 31 33 31
72 72 69 70 67 70 74 72 71 72 70 68 68 73 63 61 66 66 67 70 70 66 66 60 62 57 56 51 49 46 46 40 38 35 34 37 34 37 27 21 29 27 28 32 33
77 79 79 77 77 82 77 75 75 75 78 74 72 73 60 64 70 78 75 73 72 69 65 62 63 56 54 53 52 48 48 42 39 37 37 36 31 33 21 26 29 28 26 29 34
84 84 85 83 87 86 84 84 75 76 73 73 77 66 63 75 80 90 82 75 70 72 66 64 59 53 55 54 56 50 50 45 42 38 39 36 29 33 29 26 32 28 26 29 33
83 85 86 87 91 89 91 87 83 74 74 75 70 72 76 86 89 86 81 74 70 67 64 62 60 53 52 53 58 57 51 51 46 38 40 39 33 33 32 28 31 34 31 27 30
90 89 91 90 88 93 91 88 75 76 81 83 82 83 88 87 87 80 72 66 65 64 62 63 59 54 54 54 56 58 55 56 45 41 38 38 35 31 33 31 28 34 37 27 28
90 93 91 90 91 90 85 76 73 78 86 90 95 91 86 82 78 73 62 61 62 63 63 64 61 54 56 56 58 65 55 49 47 48 38 37 38 29 32 35 29 32 35 32 23
99 98 98 97 91 81 81 80 81 84 88 93 97 94 87 72 68 66 61 60 62 63 64 65 65 53 48 63 69 58 57 53 53 50 44 37 40 36 30 37 37 34 37 39 19
102 100 100 98 91 87 87 90 91 93 88 99 95 85 79 69 62 66 61 58 61 64 66 59 61 60 59 58 63 65 57 50 55 50 46 40 39 41 30 34 33 34 37 36 19
106 105 101 98 95 95 96 95 96 97 97 94 94 86 71 65 62 66 60 61 64 67 67 67 57 63 63 61 56 61 55 55 55 51 49 40 37 42 31 34 34 31 33 33 19
107 105 100 100 100 100 102 101 100 99 97 87 88 79 69 63 61 65 64 65 66 69 71 67 65 64 66 65 61 53 66 61 55 55 52 39 36 43 35 35 34 30 31 31 23
108 108 107 105 104 106 106 102 100 97 96 78 77 68 65 64 62 64 69 68 71 73 71 61 66 68 62 67 69 55 59 64 60 58 58 42 39 47 38 33 33 29 29 28 24
107 109 108 109 110 110 105 103 101 97 83 75 67 66 64 64 65 65 70 74 74 75 70 69 69 72 66 66 70 69 65 64 67 64 51 44 41 44 42 29 33 32 30 26 26
112 113 112 112 110 109 106 102 99 89 75 70 67 67 63 65 67 69 71 77 77 75 70 71 56 63 71 69 73 67 67 65 65 54 44 43 45 44 44 33 36 35 30 25 25
117 113 110 111 108 106 104 98 89 78 73 69 67 68 68 65 68 70 72 78 79 76 75 72 66 58 59 67 72 68 72 65 60 56 51 47 47 45 45 38 37 36 30 28 21
114 113 109 106 104 102 97 87 81 73 67 67 68 70 69 68 69 71 75 78 82 79 79 77 76 71 72 70 65 67 69 69 68 64 55 49 50 49 49 42 39 38 33 29 19
111 108 106 99 96 92 86 79 75 69 64 64 66 67 68 69 73 74 77 77 82 82 80 80 79 79 76 79 71 64 64 63 63 60 57 57 57 52 45 45 42 40 37 31 18
102 100 95 89 85 83 78 72 70 67 65 61 64 66 69 71 77 78 78 77 81 84 83 83 81 80 78 70 83 79 76 71 70 65 64 58 53 54 42 48 44 43 42 36 23
90 85 82 82 78 75 71 69 67 64 63 60 59 63 66 69 78 81 78 79 81 84 85 84 82 83 82 75 76 75 74 76 74 72 68 62 55 54 52 51 45 43 45 40 28
79 76 74 72 72 69 64 65 61 64 59 54 54 59 63 68 74 77 79 80 80 85 86 86 86 83 83 88 83 79 75 74 66 67 59 60 56 53 48 49 51 50 49 46 34
64 65 66 65 66 63 61 59 56 52 47 48 52 57 61 65 68 71 74 81 80 81 83 85 84 86 87 83 77 74 71 70 64 61 59 55 52 53 48 50 54 54 56 55 47
58 59 61 59 61 59 48 48 46 46 47 48 52 52 55 58 59 64 69 76 77 77 82 83 83 85 84 86 84 80 78 70 59 54 52 55 50 54 53 55 61 64 59 57 51
54 58 58 53 48 45 43 47 47 45 41 42 45 45 48 53 53 57 60 67 72 75 78 81 83 83 84 87 91 88 84 80 75 68 62 61 57 57 58 61 64 64 59 58 57
54 53 44 41 42 42 42 40 39 40 40 37 40 43 46 46 48 50 53 58 66 71 75 75 82 87 86 88 90 87 86 85 83 82 77 70 67 71 70 67 68 73 71 69 64

GFSSW_250_spd_099.txt.gz
Wind_Speed
55 55 55 56 51 51 49 49 49 50 52 54 53 55 55 55 60 63 59 58 59 58 61 59 56 55 52 51 49 47 47 43 43 39 37 32 33 32 35 38 41 41 40 36 30
53 55 53 55 58 58 55 51 49 48 52 53 52 57 59 61 62 60 58 58 59 59 60 58 56 52 51 52 50 52 48 50 43 41 38 36 32 32 35 39 39 36 29 30 28
54 55 58 54 57 59 60 58 59 63 64 60 56 60 64 65 67 61 65 64 60 61 62 61 59 57 53 49 49 53 52 52 46 43 37 39 34 31 35 39 35 27 27 33 28
57 59 56 62 61 63 63 64 63 67 65 65 69 71 73 71 70 65 67 65 68 64 62 62 63 60 59 56 53 51 57 54 50 43 39 39 37 32 32 36 30 28 30 27 27
63 63 67 70 71 69 68 67 70 73 71 70 73 75 75 75 75 71 71 73 71 64 64 64 66 62 62 60 55 49 59 55 52 46 44 39 39 32 33 30 28 29 24 27 30
69 71 69 70 71 74 74 75 77 77 75 74 75 78 74 82 74 79 74 74 74 66 69 69 71 69 62 61 59 55 56 55 54 49 45 39 40 30 35 32 31 26 30 29 27
75 72 73 75 76 79 81 80 82 77 75 76 79 78 80 84 79 78 73 70 71 74 75 78 73 72 64 62 59 55 54 58 55 53 46 41 40 35 36 34 30 28 30 27 29
77 79 81 79 80 82 84 81 81 83 83 86 86 87 84 75 70 71 75 80 86 84 85 80 75 69 61 59 54 54 53 54 62 51 48 41 44 38 37 34 31 30 26 33 31
83 81 83 82 86 83 86 86 83 85 87 86 86 84 78 68 66 74 80 85 89 94 89 78 71 65 59 58 57 53 49 56 64 51 48 43 48 42 33 34 31 26 27 34 34
90 89 90 87 88 91 89 89 90 89 89 90 91 88 73 64 70 79 85 90 94 91 84 75 65 61 61 57 50 53 49 61 61 52 40 44 50 43 36 35 35 28 29 30 32
96 95 93 92 90 93 90 91 92 96 95 94 96 90 79 74 78 86 86 89 90 85 82 70 59 54 57 56 53 56 55 58 57 53 34 50 47 45 38 35 36 31 27 27 30
101 99 99 99 97 100 95 96 98 98 94 101 95 86 80 82 84 89 89 87 86 83 77 64 55 58 59 58 59 55 50 50 63 54 42 52 43 45 40 36 37 35 26 27 26
106 104 105 104 101 99 102 102 103 104 104 104 101 91 87 87 90 90 89 86 86 82 73 63 57 60 61 58 59 63 47 47 56 64 46 46 41 46 43 37 32 33 28 26 24
98 101 106 106 105 109 107 110 109 110 111 105 94 92 93 95 94 91 89 89 84 78 71 58 61 61 61 61 61 65 59 54 56 60 47 53 43 44 44 40 35 34 30 24 24
95 96 101 109 110 112 108 111 106 107 102 97 90 94 98 98 95 90 92 90 85 71 70 59 62 63 59 61 62 68 66 53 52 60 52 44 42 45 46 46 39 39 33 25 24
104 100 101 105 107 108 110 111 104 104 103 103 97 96 100 96 95 94 89 88 78 68 67 62 63 65 60 66 66 62 71 62 55 55 55 49 49 47 50 48 43 40 33 27 26
111 108 109 106 104 105 103 105 106 101 103 108 100 99 99 99 93 88 87 79 75 68 66 63 64 68 66 73 68 69 70 65 69 62 50 51 53 54 49 49 44 40 33 30 28
113 106 108 112 106 103 105 109 106 105 108 105 101 103 100 93 91 81 79 75 74 67 68 64 66 71 71 72 73 72 72 70 65 66 64 58 56 57 55 54 48 42 33 31 30
107 105 102 105 108 110 111 109 107 108 104 103 103 102 97 93 85 69 73 74 72 69 67 64 69 72 75 70 73 66 72 65 63 61 66 60 57 57 50 50 47 45 36 34 33
106 107 105 108 110 111 110 106 108 107 99 101 101 99 90 86 72 73 70 72 70 69 67 65 69 78 78 72 74 68 72 75 67 65 61 62 60 56 58 51 49 48 46 39 37
107 107 106 107 106 107 104 104 105 101 98 99 94 88 79 76 70 67 66 70 68 68 69 66 72 77 78 75 77 65 58 71 72 71 69 64 58 60 63 53 51 50 48 42 41
103 101 102 101 99 97 97 99 95 96 91 87 81 76 71 68 68 64 67 69 64 68 71 69 71 75 78 80 76 70 64 59 63 68 66 66 64 61 62 61 56 53 53 43 41
92 93 92 90 90 89 90 88 85 84 84 76 68 66 64 65 65 66 67 66 59 66 72 64 71 76 80 85 85 77 73 70 63 55 50 57 57 62 60 59 56 54 51 48 46
83 82 82 81 82 82 82 79 77 76 69 60 57 60 61 60 61 62 62 61 57 65 65 69 72 77 82 89 90 86 84 74 72 68 67 62 62 66 65 63 60 56 53 51 49
68 72 70 68 72 71 69 66 65 60 56 50 52 55 55 54 58 57 60 57 55 59 65 67 71 77 84 88 92 90 85 84 85 80 77 72 72 73 70 68 69 66 60 54 50
60 63 62 61 64 63 58 54 52 54 49 45 49 54 55 53 52 52 51 51 50 54 60 64 70 75 82 87 89 93 92 89 78 78 70 77 77 72 67 64 67 59 59 55 51
54 55 56 54 53 48 46 47 47 45 42 45 50 46 46 45 45 46 43 46 46 49 56 59 68 72 77 87 90 85 89 88 84 85 76 75 70 72 68 65 66 64 57 53 53

GFSSW_250_spd_102.txt.gz
Wind_Speed
62 61 59 57 56 57 58 58 57 56 53 56 56 56 55 53 59 56 53 53 54 60 59 60 57 55 58 57 58 58 54 49 49 47 42 43 33 37 34 37 38 39 38 38 33
63 60 58 57 59 60 62 59 57 59 57 56 57 56 56 57 60 60 59 64 61 62 63 63 62 61 58 57 57 55 55 51 50 47 44 44 37 35 35 37 37 37 38 31 32
63 61 59 60 56 56 53 54 57 57 58 60 61 61 60 58 65 62 64 66 67 67 70 67 66 68 63 59 59 61 54 57 53 53 46 43 42 35 34 37 38 37 38 30 23
69 68 68 65 63 60 58 57 57 59 61 63 61 65 64 65 70 66 66 67 68 67 72 72 68 69 67 65 60 59 57 58 59 54 49 42 44 38 37 35 39 36 37 35 32
68 69 66 66 59 59 59 59 64 68 71 68 70 67 68 72 74 68 69 69 73 72 74 80 75 74 75 69 66 67 62 59 60 59 50 48 44 42 40 35 38 38 37 34 31
63 66 65 68 69 69 69 71 73 73 73 71 72 72 73 76 73 72 72 72 76 78 82 81 72 71 68 71 69 70 65 61 62 59 55 52 47 41 48 36 36 37 38 35 26
74 71 70 71 72 75 75 74 77 78 75 75 76 73 74 75 73 77 74 78 78 80 84 66 65 68 73 75 77 75 70 67 62 60 56 55 44 44 48 39 36 38 37 36 34
84 84 80 78 75 77 76 76 76 78 80 82 79 77 76 77 81 83 84 85 84 83 78 72 67 71 77 80 81 79 65 63 56 60 56 56 41 47 43 37 38 38 36 36 29
82 74 80 82 81 82 84 81 80 82 84 83 82 83 79 81 83 87 88 86 84 85 85 76 73 78 85 90 89 77 64 60 53 58 54 50 41 47 43 34 39 38 37 33 30
88 87 88 86 88 90 90 89 90 91 88 89 90 87 84 86 86 90 89 91 91 90 87 82 81 83 85 90 81 70 66 57 51 54 55 48 40 46 45 35 40 39 38 32 32
95 94 94 92 92 92 93 99 96 93 93 93 91 88 90 87 86 92 96 95 99 96 97 93 85 83 84 84 78 67 61 51 51 55 59 52 42 45 45 36 38 38 37 32 32
95 91 96 96 96 93 96 100 103 102 97 102 100 93 93 97 99 100 98 97 98 99 103 97 83 85 85 81 70 61 57 49 53 58 63 52 45 49 47 35 40 39 33 32 33
100 99 99 98 98 97 98 94 100 103 103 99 104 100 96 99 99 100 103 104 105 104 98 94 86 86 83 75 68 59 53 52 55 60 63 58 45 44 44 37 41 33 34 35 34
104 104 105 107 100 103 97 95 96 100 102 99 98 97 102 102 105 104 106 108 107 100 96 89 88 87 79 70 69 55 56 57 60 66 62 57 46 42 48 39 38 35 37 38 37
99 99 106 106 104 106 104 106 103 106 108 107 104 99 105 107 111 109 103 102 100 100 99 87 89 86 76 72 66 54 58 59 58 66 68 54 47 44 47 44 41 38 39 39 38
98 101 104 103 106 107 105 111 110 112 104 111 109 100 100 102 104 106 99 102 97 95 97 89 89 84 70 72 61 56 58 60 60 66 64 50 51 42 41 47 43 40 40 41 42
104 104 101 110 111 109 115 115 117 113 108 114 118 110 102 103 104 102 100 97 95 98 94 89 85 80 68 65 58 54 60 60 61 64 52 53 54 46 47 50 47 44 42 42 45
113 107 108 107 112 112 113 120 121 110 112 118 122 117 100 102 106 98 96 95 97 100 89 86 83 78 66 54 59 53 62 60 63 66 57 57 48 48 52 53 51 49 45 44 47
111 111 108 110 116 117 118 125 117 112 116 118 118 110 106 102 103 102 97 94 98 96 82 78 78 75 54 56 56 56 59 63 64 69 67 57 48 46 54 54 52 55 52 44 43
105 106 102 110 112 115 118 109 107 113 113 105 103 111 105 102 104 103 97 92 95 89 78 75 69 65 59 56 56 57 64 67 66 68 74 66 59 54 52 53 48 51 49 46 42
102 99 100 101 109 108 103 102 105 108 108 103 104 108 108 105 102 98 89 87 89 80 68 68 66 61 57 53 57 61 62 70 70 67 68 73 65 61 63 60 56 58 54 48 44
101 99 101 102 107 106 103 108 108 108 108 102 103 103 103 100 93 89 84 84 78 65 59 63 60 54 54 56 62 59 65 75 72 68 68 70 63 56 64 63 62 64 54 51 48
90 90 90 93 92 91 93 96 98 98 95 95 93 91 89 84 80 77 74 73 68 58 55 58 55 51 56 58 61 65 69 74 74 75 70 71 63 62 58 61 67 64 58 54 53
83 81 83 85 82 79 83 86 87 85 84 84 81 78 77 73 70 67 65 66 64 53 50 56 53 49 53 59 63 63 70 75 72 73 74 72 68 69 64 63 66 55 56 59 58
68 66 70 72 72 71 72 71 72 71 72 70 67 66 64 60 59 59 62 59 54 50 50 51 48 48 52 56 63 63 71 78 74 78 78 66 74 73 70 72 74 61 58 58 54
58 54 60 63 61 60 59 60 58 58 58 58 56 55 52 51 53 51 50 49 48 47 46 45 47 47 49 55 57 62 71 76 77 80 77 67 59 71 78 72 64 62 58 60 57
51 49 47 49 49 48 48 48 47 48 49 50 49 48 48 44 44 45 43 42 42 40 41 41 46 47 49 56 57 54 62 74 81 76 71 70 62 65 62 61 62 62 61 62 62

GFSSW_250_spd_105.txt.gz
Wind_Speed
62 61 62 60 62 63 62 63 62 63 62 60 60 59 54 53 54 53 53 54 57 58 55 57 58 58 59 65 62 59 56 52 57 57 58 57 56 52 47 37 34 36 30 29 33
62 65 66 66 64 63 62 65 65 65 65 62 65 61 57 59 58 57 56 57 57 59 57 59 60 62 63 64 65 64 61 60 60 58 58 55 55 53 50 42 38 32 33 29 30
62 61 64 63 65 67 64 62 63 63 65 66 63 56 57 57 58 56 58 58 59 61 61 63 64 65 64 66 68 69 68 67 62 59 58 58 54 52 52 45 41 32 33 28 30
64 65 64 68 70 69 69 67 66 65 67 64 62 61 58 60 58 61 65 62 65 64 66 66 67 66 67 68 69 69 72 62 59 62 60 59 52 51 53 52 48 32 34 30 29
60 67 69 67 66 72 70 68 70 71 71 68 65 62 62 66 70 65 70 68 67 63 64 65 67 70 68 68 69 74 67 58 55 56 60 63 58 55 50 56 51 35 33 34 26
68 65 73 71 68 62 69 74 73 73 68 67 69 68 69 72 71 74 74 74 74 70 70 68 71 73 73 74 74 74 74 67 67 67 66 63 60 55 54 60 52 40 33 37 27
79 72 71 76 79 76 70 71 69 73 74 72 73 75 75 78 74 74 73 76 74 74 75 76 74 75 75 75 75 77 76 72 69 72 71 77 50 60 63 60 56 43 35 37 28
89 80 74 77 79 80 80 79 80 77 74 76 76 74 75 71 74 73 73 75 76 79 80 80 79 77 77 78 81 83 83 74 76 78 80 85 59 68 60 55 56 43 37 37 34
90 83 84 78 81 80 78 81 83 83 84 84 80 77 79 79 77 80 82 80 81 82 79 82 82 81 81 85 86 90 86 84 76 82 82 85 58 57 52 52 52 43 40 32 35
92 92 85 90 82 83 84 90 85 85 85 84 85 82 83 82 84 88 89 87 85 85 85 87 82 81 85 93 87 90 91 89 83 81 76 71 57 53 51 50 48 44 39 32 35
95 93 88 92 88 88 89 88 90 86 85 89 91 90 89 91 86 89 88 95 97 90 90 96 92 89 93 93 93 96 96 92 87 79 71 67 51 52 50 53 48 43 39 35 35
93 89 88 93 94 92 90 92 94 94 87 89 90 88 93 93 84 96 100 98 100 99 100 97 91 93 93 96 99 99 100 98 82 72 64 61 49 49 42 50 47 42 37 36 31
90 87 90 95 92 97 95 95 100 98 96 94 99 91 92 95 92 97 96 98 96 93 96 94 91 98 100 100 103 106 105 93 76 66 59 61 46 48 44 45 53 41 41 35 32
91 91 92 89 94 92 90 96 104 108 98 92 93 88 89 91 88 89 90 92 93 94 100 97 96 101 104 104 106 103 99 85 72 59 53 59 41 44 44 47 51 43 36 36 36
96 96 99 98 95 97 91 96 101 98 102 102 95 87 94 98 99 97 97 96 98 99 105 100 100 104 104 103 103 95 87 76 69 59 50 54 42 46 49 50 50 41 40 42 34
94 94 93 96 102 103 102 102 103 102 90 98 100 95 98 98 100 102 102 103 104 106 108 103 104 103 102 104 98 92 84 76 59 56 42 53 50 47 51 50 50 46 43 39 32
89 89 90 94 99 102 99 105 106 99 94 99 106 103 111 103 105 105 106 107 107 110 109 110 107 107 108 110 94 82 79 74 57 53 38 54 49 45 47 50 54 51 46 38 34
93 94 94 98 103 103 103 108 107 99 97 101 109 115 111 101 104 109 113 111 109 112 114 116 114 106 109 100 90 80 82 69 57 50 45 50 47 49 59 56 58 54 49 38 35
103 104 103 107 110 111 110 112 103 103 103 111 116 116 119 108 103 111 117 119 118 117 121 115 106 98 99 92 84 84 70 69 51 48 41 47 52 58 58 52 50 46 48 42 39
94 99 107 109 110 111 112 108 109 113 116 121 119 122 124 121 110 108 115 116 118 118 112 104 84 85 88 89 87 74 67 60 46 44 42 48 55 59 60 50 53 50 51 46 46
93 92 100 98 101 103 104 102 105 110 117 120 117 119 121 119 115 114 116 115 118 111 94 91 84 81 86 83 81 75 60 52 47 43 45 52 55 58 53 58 56 51 50 51 47
89 88 95 98 96 96 97 95 97 96 105 105 104 104 112 112 109 106 108 107 102 100 89 82 81 75 77 74 70 64 57 47 44 48 50 53 58 64 52 49 61 56 49 54 53
79 80 86 87 89 88 88 85 87 93 101 101 102 99 102 102 99 96 95 97 92 87 78 71 68 64 61 64 62 56 53 47 46 53 48 55 65 71 66 59 60 62 48 50 53
71 72 79 78 80 79 81 75 80 86 89 89 89 88 90 89 86 85 83 86 81 75 70 63 58 56 50 57 52 47 50 48 50 51 58 63 74 77 70 63 62 66 60 54 55
63 65 70 69 68 67 69 69 71 73 74 77 75 76 76 75 75 73 72 71 70 69 62 56 52 53 46 52 46 45 45 46 45 55 61 70 74 70 76 71 66 61 67 64 60
56 57 55 56 56 54 55 60 58 57 58 60 61 62 62 63 63 62 62 61 58 57 52 49 47 47 43 49 44 46 41 45 43 57 62 71 76 74 75 71 67 70 73 72 67
45 46 43 46 45 43 46 46 47 45 42 48 47 50 52 49 51 50 48 46 46 44 41 41 41 40 43 45 43 34 34 44 53 65 70 73 82 79 79 75 77 76 75 63 57

GFSSW_250_spd_108.txt.gz
Wind_Speed
57 59 58 58 62 58 58 58 57 61 61 60 59 59 61 61 62 61 61 59 58 56 58 56 57 58 60 62 59 61 62 59 64 62 65 59 59 51 49 47 50 50 48 41 38
45 47 45 52 59 61 61 59 57 59 62 64 64 63 63 64 61 61 62 63 60 59 57 57 58 58 60 62 62 63 61 62 66 66 62 65 61 55 46 46 45 50 49 41 40
52 51 49 51 49 52 61 62 58 59 59 62 63 65 62 61 63 63 65 62 60 60 58 60 61 61 62 62 62 63 59 61 61 64 66 65 64 63 58 48 47 43 49 46 39
64 60 57 59 59 58 56 58 62 61 64 65 63 63 63 61 65 61 64 63 60 59 63 65 66 65 66 66 69 62 65 65 63 63 64 64 66 66 58 54 52 49 46 46 42
68 66 64 65 66 66 63 62 58 69 65 63 64 68 67 67 70 64 68 68 63 64 66 71 72 70 68 67 67 69 70 69 70 65 67 70 71 73 68 60 58 58 50 45 43
72 70 72 70 70 73 70 70 69 64 72 68 66 66 67 69 67 69 72 71 69 71 71 70 72 69 65 65 68 72 71 70 72 72 71 72 74 74 71 65 64 61 49 50 43
75 77 78 76 75 71 75 76 75 73 64 73 69 66 64 76 69 73 73 73 72 72 73 69 68 65 66 68 74 75 70 70 72 73 73 79 75 74 73 70 72 59 55 50 51
78 80 83 81 77 74 77 77 80 77 76 68 76 72 68 72 67 70 74 77 75 70 71 72 70 68 73 76 76 72 73 72 74 74 80 89 76 79 81 78 61 54 51 44 48
84 85 82 84 84 80 81 85 84 81 79 77 75 74 77 75 76 75 75 80 82 79 79 76 73 74 76 82 79 78 80 78 76 85 88 89 80 77 87 81 57 51 44 41 44
92 93 93 97 94 89 88 91 94 89 84 83 78 76 79 79 75 78 81 83 86 79 76 79 76 74 75 79 77 87 87 85 84 86 91 87 89 88 85 75 55 48 42 40 41
98 99 101 103 100 103 96 101 96 98 95 83 79 80 81 78 81 80 87 82 80 82 85 89 84 81 88 87 88 95 91 87 88 88 89 90 91 89 86 63 52 45 39 42 42
100 100 104 107 103 103 102 106 105 97 90 84 82 81 83 91 79 82 86 84 84 89 94 87 80 87 89 86 89 90 91 88 85 88 95 93 88 86 69 60 46 42 34 43 44
101 107 108 111 108 110 111 102 107 102 90 80 81 83 90 88 82 86 92 88 92 91 92 91 88 93 91 91 90 90 92 92 90 90 94 97 67 75 66 57 43 37 34 44 47
107 105 108 112 115 114 100 99 99 93 84 74 81 84 89 93 87 90 97 93 91 88 91 89 84 88 89 90 94 87 95 92 92 98 97 95 69 77 62 51 38 38 38 47 47
95 99 101 103 107 103 94 94 92 90 85 85 85 84 90 92 90 92 97 96 94 96 91 84 87 89 87 87 95 90 95 99 104 101 101 95 63 49 56 48 35 46 46 50 50
83 85 85 88 93 90 86 89 92 93 85 96 97 92 90 92 92 91 93 95 95 98 97 94 96 92 93 96 97 101 100 99 104 101 89 91 65 44 54 43 41 53 54 55 54
83 84 84 86 90 87 86 86 90 89 91 98 97 93 94 94 95 95 98 95 95 94 95 95 95 95 98 100 99 99 102 103 104 103 94 82 57 53 51 39 49 57 54 53 50
81 85 89 93 93 94 90 89 87 87 88 94 87 89 90 97 99 102 101 98 100 103 104 103 98 95 103 106 101 103 104 105 107 100 85 69 47 47 49 42 50 59 56 51 46
81 85 91 93 95 96 96 94 93 94 93 91 92 96 97 94 96 102 105 102 105 110 111 111 105 102 108 103 103 100 104 103 103 87 64 55 55 46 51 39 52 59 60 56 56
87 88 92 92 89 90 89 90 95 101 102 100 97 100 101 101 99 97 101 102 105 108 112 109 104 98 102 104 107 101 100 101 93 75 61 52 50 45 43 43 49 59 60 54 60
88 89 90 89 90 88 91 91 89 93 92 90 96 104 105 110 109 104 106 106 109 112 112 109 104 99 102 105 103 104 103 100 79 65 58 54 50 44 44 53 53 57 61 53 56
81 83 84 83 85 83 85 85 86 90 91 88 85 91 89 104 107 103 108 110 110 108 107 100 97 94 101 105 99 97 94 88 75 64 52 45 47 48 48 52 55 50 47 54 60
71 73 76 74 75 76 77 77 77 81 84 80 78 84 83 89 90 92 93 98 98 92 88 82 75 75 81 86 80 81 80 77 72 58 49 42 49 48 55 58 57 50 52 54 55
67 68 73 67 68 69 67 71 72 73 75 73 73 74 75 80 82 85 88 89 87 85 81 78 77 74 78 82 83 77 70 64 60 51 45 43 53 54 60 60 61 59 58 54 55
60 60 61 62 60 60 60 61 62 65 64 65 68 66 65 69 70 71 75 77 78 75 71 68 64 66 64 65 74 64 57 51 51 42 41 52 59 62 68 60 64 64 51 57 52
55 52 53 55 52 52 50 52 53 52 52 53 56 57 58 59 57 61 62 66 68 66 63 58 55 53 55 59 61 52 44 47 41 39 48 61 62 71 72 64 64 66 63 59 48
48 44 47 46 45 44 43 43 46 44 43 44 46 45 48 49 50 50 50 54 57 56 54 49 46 46 52 52 44 39 51 52 49 48 57 69 74 77 81 75 67 67 69 66 60

GFSSW_250_spd_111.txt.gz
Wind_Speed
43 46 47 50 55 60 62 64 63 61 60 58 56 53 54 57 59 59 60 61 60 62 64 63 59 57 57 58 59 57 51 52 61 63 64 64 61 58 58 52 55 52 53 42 43
53 53 50 49 50 50 58 60 62 66 64 61 63 57 57 61 63 65 64 66 64 64 63 63 63 59 58 57 56 56 53 56 63 63 65 63 62 64 57 55 50 52 55 44 36
64 65 63 61 59 56 53 55 57 58 60 55 56 61 59 58 62 64 63 66 67 65 65 64 63 60 59 61 59 57 57 63 65 65 63 64 66 65 62 62 55 54 53 49 38
62 65 72 71 70 67 68 63 64 61 56 53 49 53 61 63 63 66 62 64 67 66 64 66 66 63 62 63 63 58 63 66 63 61 61 63 68 68 66 65 63 63 58 53 46
66 64 66 67 75 75 69 72 71 70 65 65 59 57 56 57 69 62 68 68 67 67 65 66 68 68 67 64 65 64 68 62 59 60 63 68 65 68 67 73 69 73 64 65 62
73 72 73 75 75 76 78 76 77 76 73 71 67 67 60 61 60 66 68 67 67 67 65 67 73 71 67 69 71 71 60 59 60 64 66 68 67 66 71 75 75 77 71 71 68
79 80 76 76 76 77 82 79 78 76 76 73 67 69 64 73 63 62 70 73 73 69 70 69 71 69 68 72 71 67 63 65 69 69 67 69 66 70 73 77 77 75 72 76 77
83 82 82 82 83 85 82 85 84 78 79 81 77 72 66 76 71 71 65 71 75 74 73 70 70 65 67 70 72 73 75 67 69 68 69 76 59 73 79 78 75 74 73 77 78
86 89 89 88 87 89 87 87 89 83 81 78 77 76 73 77 78 77 74 73 76 76 74 74 73 72 72 74 76 73 70 71 71 75 77 79 67 76 78 79 77 76 75 71 64
90 89 94 94 94 88 92 96 93 92 90 87 84 84 84 86 86 85 79 83 80 80 79 80 76 75 72 81 77 85 78 73 73 80 82 74 73 76 79 79 78 75 78 76 63
90 93 96 94 94 88 92 94 97 91 94 94 90 92 95 93 94 90 91 86 89 84 84 85 79 69 78 88 86 80 80 76 78 81 79 77 75 76 81 79 78 78 79 75 56
93 97 101 104 104 95 93 99 96 94 88 94 96 94 100 100 91 93 97 94 87 81 84 86 81 78 81 83 82 76 79 82 81 82 86 81 79 79 80 80 81 82 75 64 52
98 101 108 111 101 96 97 99 100 100 91 92 97 97 100 103 96 98 101 92 86 84 85 87 82 87 82 81 81 82 84 85 83 87 86 82 77 78 76 79 87 83 67 59 50
96 97 98 101 99 93 91 94 98 101 96 94 101 103 103 103 99 98 97 91 86 84 88 87 81 81 87 85 90 84 84 87 87 87 86 88 81 71 78 86 82 74 64 54 48
90 90 85 83 79 83 85 87 91 95 96 103 103 100 101 100 96 88 87 88 82 82 87 83 85 84 83 82 86 79 87 85 86 88 88 78 84 75 83 85 83 74 62 51 44
84 84 82 80 78 78 77 80 81 82 80 88 88 89 91 93 90 87 85 86 86 84 85 86 89 89 93 92 94 90 91 90 91 87 88 79 91 82 86 88 81 74 53 44 40
77 77 78 76 79 78 79 81 79 76 77 77 80 81 83 86 87 86 86 87 91 91 86 87 88 90 91 88 91 91 88 89 91 93 92 86 94 88 82 84 68 62 46 42 42
77 78 79 80 81 81 79 79 79 81 84 81 77 80 82 78 82 86 89 91 95 96 96 92 88 89 89 90 92 95 93 96 97 95 94 92 87 83 83 69 56 51 42 43 47
81 83 83 84 83 82 80 81 83 84 80 80 82 84 80 78 81 86 91 92 95 99 97 96 88 92 90 93 90 92 94 93 96 97 96 89 86 82 79 68 56 49 37 45 51
85 87 87 86 83 81 79 81 83 85 81 78 78 85 85 88 89 88 90 88 91 92 89 88 83 88 91 92 93 93 96 100 102 101 97 89 86 85 78 56 41 41 37 48 52
87 90 88 85 80 77 76 77 76 79 79 77 79 80 83 85 83 88 92 87 85 87 88 85 84 86 92 99 102 103 101 99 99 102 96 86 79 80 61 50 42 41 40 50 60
84 86 82 76 71 70 70 71 71 75 75 71 70 72 79 87 85 81 77 91 87 86 91 89 90 87 88 97 100 101 101 97 95 98 93 71 62 62 48 47 40 34 44 57 64
79 79 71 65 64 64 64 66 66 69 71 68 66 66 71 77 77 81 78 79 84 87 84 87 90 92 94 99 102 105 102 99 93 89 81 58 47 47 44 43 36 36 52 63 65
73 71 65 62 61 60 61 62 64 63 63 60 61 61 65 67 69 72 75 77 79 81 78 76 77 76 79 92 99 99 92 87 78 72 63 50 50 47 38 38 37 48 61 64 63
70 67 64 63 59 57 57 57 56 57 55 54 56 54 56 58 63 63 70 70 71 74 73 68 68 69 72 74 79 84 79 71 69 62 56 55 48 48 38 41 51 59 63 62 63
64 62 60 59 56 53 49 46 46 45 49 47 49 48 49 51 54 58 61 62 62 64 65 64 60 60 62 68 68 69 62 64 56 49 46 51 43 40 43 46 62 67 63 65 66
58 55 54 51 48 46 42 41 40 39 42 39 39 42 43 46 49 50 52 58 55 56 58 55 54 56 57 63 60 54 65 57 49 44 47 44 48 39 46 58 70 72 69 67 70

GFSSW_250_spd_114.txt.gz
Wind_Speed
46 48 49 46 45 47 45 50 55 58 59 61 64 64 64 65 64 62 59 58 58 58 59 59 60 60 59 59 59 56 52 50 58 64 58 52 53 55 58 55 54 55 48 48 40
48 48 47 51 58 56 57 55 52 52 57 59 64 65 66 64 65 66 63 62 64 62 63 63 63 63 62 60 60 58 53 54 61 61 59 58 56 57 56 52 56 58 58 52 49
52 54 54 57 56 56 62 63 64 62 56 54 50 57 58 58 62 65 64 63 64 66 66 67 67 63 62 64 60 59 57 60 59 64 61 59 60 59 53 54 61 60 58 58 55
59 60 59 59 60 60 60 63 69 70 69 65 62 63 65 60 57 57 56 65 68 67 68 67 69 66 64 63 64 57 58 61 64 68 64 61 67 61 57 54 61 63 64 61 59
66 71 70 70 66 67 68 68 68 67 71 72 74 68 67 66 74 66 61 57 64 70 73 73 70 70 65 62 63 59 60 63 64 68 65 66 66 65 58 61 62 62 66 64 63
77 78 78 79 75 74 74 73 71 69 73 75 75 76 73 70 78 71 73 72 69 66 65 68 75 73 72 67 63 61 60 64 67 68 70 70 63 61 62 70 64 65 66 68 62
81 78 81 80 83 86 80 80 79 79 77 73 75 73 75 80 78 76 76 74 72 72 71 66 64 66 70 74 65 60 64 65 65 67 68 71 60 67 66 66 70 68 70 69 65
80 83 84 85 85 86 91 85 83 83 82 82 81 78 73 83 84 82 80 79 79 76 74 73 68 60 65 71 74 71 66 62 58 64 68 70 56 69 65 67 66 69 70 67 67
90 92 92 88 88 88 90 90 87 87 86 87 86 82 81 84 89 89 85 82 82 79 76 76 73 66 65 65 72 74 64 66 68 70 73 70 63 66 69 68 67 70 67 66 69
97 100 98 93 86 80 83 84 88 90 93 87 90 90 90 90 90 92 89 84 81 83 82 79 78 74 72 70 68 79 80 73 72 76 76 73 71 74 73 72 70 70 69 69 71
99 101 96 92 88 84 90 88 94 94 89 88 89 93 92 92 89 96 94 95 91 87 87 86 84 79 80 83 80 78 83 78 76 79 80 79 73 76 70 71 74 72 74 73 70
106 102 96 95 93 94 96 103 98 89 82 93 97 96 97 96 88 96 100 95 97 96 95 93 87 87 87 84 86 83 78 81 82 86 83 82 75 69 70 72 72 75 76 73 72
104 101 102 100 100 102 105 97 87 87 86 96 103 99 104 101 95 97 100 96 95 95 95 94 91 90 91 91 87 84 79 80 82 86 86 78 62 68 72 75 73 76 76 75 72
104 108 108 102 100 97 90 83 82 84 85 90 96 103 103 99 95 94 99 98 98 96 98 94 91 92 95 88 88 79 77 86 83 84 83 82 68 68 73 72 73 77 78 73 67
109 107 101 92 89 89 85 81 78 74 72 82 81 81 86 88 90 91 96 96 98 99 100 96 96 95 93 86 86 80 83 83 81 81 78 75 80 63 70 71 72 79 81 74 71
100 96 90 87 83 84 82 77 72 69 66 69 69 70 72 79 82 83 90 95 100 102 100 98 96 93 88 84 83 83 82 85 85 82 80 73 82 66 71 75 75 80 79 76 75
92 89 84 84 83 80 78 76 74 74 70 63 65 66 68 69 74 77 83 88 93 97 95 94 91 89 85 83 85 84 83 86 84 79 74 74 84 77 75 74 76 76 77 74 66
87 86 83 80 80 80 79 78 77 72 71 62 62 66 66 65 71 75 78 80 85 86 87 85 84 83 80 80 83 83 83 84 84 83 83 79 78 75 69 73 73 74 74 70 64
83 82 81 82 82 82 82 83 81 76 67 62 65 66 69 69 74 74 75 77 79 80 79 83 84 87 82 80 82 84 86 88 85 81 80 74 73 75 77 78 77 72 70 68 67
81 83 82 83 83 82 81 81 76 72 66 63 63 67 69 72 72 76 79 72 76 78 77 78 78 80 84 84 87 88 90 90 89 90 86 80 78 80 81 79 77 72 70 70 61
80 81 83 83 81 81 77 75 71 69 65 63 62 65 69 70 72 76 75 74 75 76 74 75 75 76 82 89 92 94 95 96 95 95 92 83 81 77 74 74 73 72 65 62 48
83 83 82 79 77 74 70 67 65 66 65 62 61 63 65 69 70 71 71 73 76 76 76 74 73 76 80 85 89 89 91 92 91 90 85 79 74 77 77 77 73 59 57 49 47
82 79 76 72 69 65 63 64 63 62 62 59 59 60 61 64 64 70 69 70 72 74 73 74 73 74 79 83 85 85 85 86 86 84 79 76 67 74 72 63 52 47 47 43 44
78 74 71 65 62 60 59 60 59 57 57 53 54 52 55 58 59 66 63 63 67 69 73 72 71 72 75 80 81 84 84 82 79 76 75 67 61 69 63 51 40 41 37 40 42
73 69 67 61 57 57 56 57 54 50 49 48 50 46 49 53 53 59 58 59 60 63 68 67 63 65 70 77 79 79 77 71 70 69 70 64 44 62 61 47 39 40 39 44 42
70 68 64 59 55 59 53 52 48 43 44 42 45 41 42 46 51 50 54 56 53 55 58 58 59 60 61 69 74 71 66 68 74 69 63 47 40 61 51 44 48 46 43 46 45
68 67 63 58 55 54 50 47 41 37 38 39 39 36 38 41 47 45 47 48 49 51 52 53 52 54 55 62 63 53 64 73 76 63 53 37 45 56 54 51 51 48 50 51 54

GFSSW_250_spd_117.txt.gz
Wind_Speed
36 36 39 40 39 41 45 47 49 46 48 47 51 52 56 59 61 64 64 66 68 67 68 67 63 61 60 59 57 56 53 50 53 58 61 55 47 45 42 44 46 48 48 51 50
40 44 45 45 48 47 48 50 46 47 55 55 53 53 53 53 60 65 65 67 69 69 67 68 66 66 64 62 62 60 56 53 55 61 59 55 53 49 46 48 51 51 51 53 55
49 51 50 50 50 52 52 52 54 56 53 54 62 62 59 57 58 60 61 60 61 64 64 64 66 66 65 64 63 62 56 59 55 62 58 57 57 52 47 53 56 53 56 56 59
56 57 56 55 59 60 61 61 59 60 61 63 59 59 69 64 68 68 64 64 62 60 59 61 63 65 66 64 65 63 62 62 61 61 62 61 58 54 52 57 60 56 59 57 56
56 57 58 61 63 66 66 65 68 70 71 68 69 70 71 68 71 71 75 72 71 73 69 65 58 60 60 64 65 62 65 66 65 62 61 62 61 57 53 62 64 61 55 55 60
61 61 61 65 67 70 72 73 74 75 78 74 75 75 75 75 77 76 74 75 75 76 76 73 73 71 64 64 67 67 69 67 66 68 64 60 60 57 60 69 60 58 59 61 63
69 65 70 75 72 74 76 77 80 78 80 80 81 81 80 80 85 82 79 78 78 78 79 81 78 74 74 69 70 70 60 67 73 68 71 64 58 58 62 66 64 57 61 63 67
75 75 76 76 79 81 79 83 84 85 87 92 90 87 84 89 88 83 88 84 81 82 81 79 79 76 71 71 68 67 66 61 61 67 68 71 71 66 62 62 57 59 64 66 64
84 84 83 84 83 82 89 91 91 97 92 89 91 90 85 88 87 88 86 89 92 86 87 83 78 80 78 75 73 69 64 65 63 66 66 68 62 64 68 69 63 64 64 67 68
92 88 87 88 92 95 99 100 103 100 93 91 86 79 75 76 80 85 89 86 92 93 90 90 86 79 81 82 73 77 74 70 68 70 65 63 59 66 73 70 60 68 69 69 69
98 96 94 100 99 102 104 101 101 95 91 88 86 78 81 83 85 93 95 97 93 95 93 95 91 80 84 85 82 79 76 73 71 74 74 68 61 64 69 72 75 75 74 75 72
101 103 100 103 106 110 109 101 92 88 91 93 86 83 84 86 89 93 88 89 91 95 95 94 88 84 86 89 89 86 80 77 81 81 78 73 65 70 71 74 77 77 76 75 73
100 101 104 103 107 108 101 92 95 92 90 88 90 83 77 80 83 87 85 83 90 93 97 92 87 89 87 89 91 87 87 86 85 87 81 75 66 70 70 75 78 78 79 76 70
103 105 110 107 111 112 100 98 94 88 82 76 77 79 78 78 78 79 83 85 89 94 100 97 94 95 95 91 91 88 87 88 90 87 79 79 73 73 73 77 77 74 71 66 63
103 106 111 112 109 107 101 93 89 84 80 76 77 72 68 67 71 76 79 85 88 92 98 95 99 102 100 91 96 90 91 90 90 87 85 79 77 71 70 76 73 72 72 68 62
105 110 105 102 103 101 96 89 85 83 80 75 70 64 63 62 64 66 74 78 82 87 88 88 95 97 98 96 93 94 94 94 91 90 87 77 79 68 69 74 70 68 64 63 65
111 110 107 103 100 93 88 85 85 83 77 66 67 65 63 63 65 63 66 70 74 75 75 75 76 81 88 92 92 91 93 94 95 92 85 80 78 71 68 69 71 68 65 66 63
107 103 95 97 91 85 85 85 82 75 72 70 69 69 67 65 68 69 67 65 65 65 67 70 71 74 78 81 85 90 92 90 89 87 79 71 68 70 67 67 67 68 66 64 69
101 97 92 89 84 83 83 81 77 76 73 70 68 66 67 68 65 68 71 69 65 62 65 68 68 72 78 78 82 86 90 85 88 84 79 73 71 72 69 70 66 67 66 70 65
93 91 87 83 81 81 81 81 80 78 73 67 65 64 63 66 67 66 71 72 70 65 65 65 70 74 75 79 84 86 85 85 84 81 76 69 71 73 70 69 67 66 65 63 63
87 83 81 80 80 81 83 81 80 75 70 67 65 62 63 63 66 69 68 73 71 69 67 65 66 76 79 82 82 85 84 85 84 80 74 70 72 72 73 73 72 70 69 67 68
82 78 78 78 80 81 80 79 73 72 69 65 65 62 61 62 64 67 65 64 67 70 67 65 68 69 75 81 81 83 85 87 85 81 75 71 69 71 72 71 71 72 69 68 66
76 75 76 77 77 76 75 72 67 66 66 61 58 57 56 59 59 64 63 62 60 63 66 61 67 70 74 75 78 82 83 83 81 78 75 73 67 71 72 70 72 71 68 59 59
74 74 76 75 72 70 67 66 64 61 59 55 55 49 49 54 52 60 60 59 58 56 58 60 61 66 71 75 76 78 77 76 77 75 75 71 70 72 73 69 64 59 58 58 63
71 74 76 71 64 64 61 61 60 57 53 51 50 45 45 48 46 50 54 51 53 52 53 53 54 60 65 68 72 74 72 71 71 72 72 67 62 65 67 62 60 60 58 58 63
70 74 73 66 62 60 56 58 57 53 51 47 46 43 40 39 42 43 43 46 47 50 49 46 51 55 58 62 66 65 63 66 68 69 62 58 50 60 61 57 59 60 56 58 60
70 71 70 62 59 56 54 58 52 47 43 42 40 39 35 35 38 37 34 37 40 41 42 43 47 51 54 57 57 53 63 62 62 64 63 57 52 58 54 55 59 58 52 58 57

GFSSW_250_spd_120.txt.gz
Wind_Speed
36 38 37 36 37 37 39 39 40 41 43 45 47 49 48 51 52 50 55 58 57 61 61 61 61 62 62 62 62 65 61 56 57 59 62 60 57 55 51 48 48 49 49 46 45
43 40 42 42 40 43 47 47 44 45 47 49 50 48 48 52 57 61 56 55 57 61 65 68 68 69 70 69 68 68 64 61 60 64 68 66 61 58 57 53 48 49 49 46 45
49 50 45 46 46 49 47 49 52 51 51 53 55 56 58 57 60 62 65 65 64 64 63 65 67 70 66 66 64 65 62 65 62 66 67 64 62 60 56 53 51 50 50 46 42
54 50 51 51 52 52 50 49 50 52 53 54 58 60 58 63 67 67 68 68 69 69 70 71 64 62 63 61 65 60 61 63 63 65 67 63 62 62 59 58 57 51 54 48 43
58 59 58 57 55 57 58 58 57 59 60 62 62 61 65 66 72 73 69 74 74 76 77 75 72 70 65 60 61 58 62 63 65 64 64 67 67 63 63 62 61 59 54 51 48
60 63 62 59 57 58 61 62 64 66 66 67 68 69 72 74 77 77 76 77 79 78 80 81 79 80 76 73 70 67 60 62 66 64 67 71 69 70 69 70 70 65 57 52 50
68 68 64 62 63 67 66 67 70 74 79 75 76 77 77 79 81 86 88 85 86 82 85 84 85 82 80 78 75 74 72 69 69 68 67 70 65 66 68 67 66 64 61 59 53
72 74 70 70 73 76 78 80 81 77 82 85 83 83 87 87 90 91 92 95 92 93 89 92 88 86 83 80 76 76 77 78 75 70 74 75 72 72 70 68 69 69 67 68 66
76 76 76 76 77 82 84 83 85 91 95 88 91 89 89 94 97 99 97 98 94 94 94 91 92 88 81 85 83 77 73 74 77 77 78 72 67 65 65 63 60 65 65 61 64
80 80 81 83 82 86 87 91 94 97 92 94 91 94 96 96 102 92 89 85 82 85 90 93 91 89 88 86 81 86 81 83 75 80 79 74 71 71 65 61 60 59 61 64 62
82 85 87 87 91 89 95 98 100 101 98 94 98 102 100 99 93 88 86 81 85 84 90 90 86 78 86 86 84 87 88 84 85 82 80 79 75 72 67 66 65 62 61 61 60
87 89 92 90 89 92 97 105 101 99 100 102 107 102 92 87 88 88 85 83 85 85 90 89 80 86 86 91 88 86 86 86 89 86 84 82 78 77 73 70 68 67 66 64 63
93 96 96 98 97 98 101 99 97 98 104 109 105 96 89 89 86 82 79 80 80 85 90 94 93 98 96 95 95 92 87 89 92 92 85 81 77 78 75 74 76 74 72 67 64
97 99 101 101 101 102 99 99 97 105 111 107 96 91 87 84 76 72 70 72 75 77 79 86 95 99 100 96 95 89 89 93 94 93 85 82 77 81 76 80 81 78 75 70 67
99 99 101 101 104 103 102 100 106 108 106 98 96 88 82 78 75 74 69 68 70 72 76 79 83 92 96 95 97 84 90 90 92 89 89 79 77 84 77 81 82 81 74 70 68
100 102 101 101 104 103 104 108 110 108 103 96 88 84 80 78 76 69 68 62 61 63 66 73 79 81 83 84 92 90 91 91 91 89 87 85 84 83 81 85 83 81 76 72 73
100 102 105 105 101 103 105 108 109 100 96 89 86 81 81 73 72 70 67 65 63 62 64 61 68 74 78 82 84 89 93 94 93 92 84 90 88 83 83 79 78 77 77 76 70
103 103 103 105 101 102 107 107 101 98 92 86 83 80 73 70 70 72 72 70 66 64 63 63 65 68 73 75 81 87 88 90 91 94 93 94 92 90 83 83 82 79 78 75 68
101 102 102 101 104 105 101 99 96 91 88 85 81 73 72 73 70 71 74 71 68 66 67 67 66 68 69 71 75 77 80 79 87 84 81 83 84 82 83 83 80 76 71 65 62
101 100 102 105 104 99 97 94 91 87 86 82 77 74 73 72 71 68 68 69 68 62 63 66 67 70 70 71 73 75 75 78 78 80 77 72 77 83 81 80 78 75 68 63 63
102 101 101 99 94 92 91 91 87 86 81 79 77 75 71 68 69 68 68 65 61 63 59 62 64 72 70 75 76 74 76 78 79 80 80 79 82 85 78 77 75 72 71 69 64
93 95 87 86 87 88 89 86 84 81 80 78 75 72 69 66 66 67 66 59 56 57 57 54 60 67 72 73 78 77 77 79 82 80 79 80 84 81 78 79 79 74 71 70 70
90 85 85 83 82 86 84 81 79 80 79 76 74 69 64 63 57 61 59 54 54 51 53 49 56 61 71 73 76 78 78 81 83 80 80 81 79 76 73 73 72 69 68 71 73
82 80 78 80 82 80 77 77 79 76 75 74 70 64 60 57 50 52 54 51 49 48 47 46 48 57 65 72 75 78 78 80 78 78 79 75 77 73 74 71 65 63 63 68 72
76 75 76 78 76 74 74 76 74 75 72 68 62 57 54 48 42 43 45 44 42 45 44 45 48 52 60 66 68 75 79 75 73 73 71 75 74 72 72 65 62 61 59 64 68
73 75 77 72 71 70 71 72 70 67 66 61 55 50 44 41 38 37 37 38 35 37 38 40 41 44 52 60 64 68 70 69 69 70 69 69 67 71 65 66 64 61 60 61 62
74 73 69 65 67 69 69 67 63 63 57 53 48 43 39 36 33 30 31 33 33 31 33 35 37 41 48 52 56 56 64 68 68 68 63 63 64 63 62 63 63 62 63 62 60

GFSSW_250_spd_123.txt.gz
Wind_Speed
47 45 42 43 43 42 42 40 42 40 41 42 43 43 43 45 48 50 51 50 51 50 49 51 51 53 53 56 58 58 57 55 61 64 65 73 57 57 55 56 50 52 56 57 52
56 51 47 46 44 44 45 46 47 47 46 48 51 53 50 52 54 52 53 55 54 54 55 57 56 53 57 60 64 64 63 63 65 67 69 76 65 65 58 57 55 56 56 55 54
56 55 52 53 52 50 51 50 52 53 53 51 53 54 55 53 57 50 55 57 59 63 64 59 58 63 60 60 65 68 67 71 70 71 69 73 67 69 60 62 60 57 56 54 52
61 61 59 58 56 59 54 54 53 55 57 56 55 55 57 56 59 50 59 61 63 62 64 68 69 64 64 66 67 65 61 65 71 71 65 70 70 65 66 61 62 56 55 56 53
64 65 64 63 61 60 61 60 60 57 58 60 61 59 56 63 68 66 68 65 65 69 69 70 69 69 73 72 74 69 73 69 66 68 68 69 65 66 66 67 63 59 60 56 55
69 71 71 70 68 66 66 65 65 66 67 64 63 65 65 68 68 71 73 72 73 76 76 78 75 76 74 75 77 78 77 76 73 69 67 66 67 68 63 66 65 66 67 66 64
69 72 71 73 72 72 71 72 72 71 73 69 69 70 74 75 76 78 76 77 79 82 81 85 84 86 83 85 81 78 83 81 77 78 77 76 68 66 64 70 68 70 76 70 64
66 67 68 72 74 75 74 76 76 78 76 76 77 79 80 81 85 82 85 90 89 91 92 89 90 91 90 92 93 86 82 83 80 84 81 85 74 78 78 77 73 73 66 65 58
70 71 73 74 70 70 74 76 79 80 79 80 84 84 85 87 87 90 94 95 97 95 94 96 93 91 94 89 91 89 85 83 85 87 88 82 77 83 85 77 74 75 72 70 68
75 77 79 81 77 78 78 79 83 80 82 83 87 91 93 94 93 94 98 98 98 96 93 89 90 88 88 85 82 89 91 85 83 87 91 86 81 81 84 79 78 79 76 69 63
75 78 81 82 84 83 84 83 81 87 88 89 91 97 97 99 101 105 103 101 93 89 87 84 83 81 83 84 84 90 92 88 83 87 94 87 83 83 82 78 75 80 78 73 68
80 83 85 87 88 89 90 91 94 97 93 95 99 100 101 101 106 106 100 95 87 86 84 85 78 85 85 85 84 88 88 86 90 92 95 90 88 85 84 78 73 78 78 78 73
86 87 88 91 94 94 94 94 97 99 102 100 102 104 103 101 100 96 91 87 86 83 80 79 78 80 83 84 87 89 87 88 92 96 95 88 85 84 82 83 82 79 76 79 75
90 91 92 92 95 96 97 99 100 103 104 100 103 104 101 99 94 92 89 86 86 81 73 68 71 73 75 81 88 87 89 91 95 94 90 94 85 85 85 85 82 85 84 79 78
94 97 98 97 96 96 98 99 99 101 105 97 95 96 97 99 98 92 92 87 82 76 70 66 68 72 73 75 82 78 90 93 96 95 91 89 90 85 90 82 83 84 83 80 76
92 93 94 95 96 97 97 99 100 99 98 98 98 98 99 99 100 96 92 86 79 75 73 67 70 70 69 75 78 78 83 85 95 102 103 88 93 89 92 89 92 85 82 80 79
90 90 91 95 97 100 98 96 96 99 99 100 101 100 102 100 99 94 89 82 79 74 69 68 67 67 69 69 73 76 80 82 84 93 99 99 100 90 90 94 91 82 79 78 76
92 93 96 99 95 95 96 98 97 99 102 101 100 102 102 99 95 92 85 81 78 74 67 69 69 74 68 67 72 73 75 77 79 81 85 96 100 88 91 89 82 76 81 82 78
96 96 95 95 96 97 97 99 99 101 102 101 103 101 101 96 91 86 82 79 76 73 67 64 68 76 66 68 70 73 70 70 77 80 80 80 85 92 88 82 82 82 87 84 84
93 92 92 95 96 99 101 104 102 101 101 102 103 101 98 95 89 83 78 77 72 63 63 59 60 65 68 65 68 72 71 74 75 73 70 74 80 83 86 85 84 82 86 83 80
93 93 92 96 97 100 105 101 98 99 100 101 101 97 93 90 83 82 78 73 63 59 58 56 54 56 65 63 67 71 74 74 75 71 67 68 73 76 81 83 86 86 86 81 78
95 96 96 99 102 104 101 100 101 99 97 98 95 92 90 83 81 77 73 68 61 56 54 54 48 52 59 66 62 69 71 75 74 72 67 67 70 73 79 78 80 81 86 80 78
97 100 100 98 96 98 98 96 95 97 96 92 90 87 82 81 76 70 68 62 57 53 51 47 48 48 54 63 56 67 71 72 76 75 69 69 69 72 79 77 79 80 77 69 73
98 97 96 94 94 94 92 92 94 92 91 88 86 82 80 76 71 65 60 55 50 49 47 46 46 47 49 58 59 65 70 68 74 72 73 71 74 77 79 85 81 77 75 74 75
95 91 94 92 89 89 90 91 89 86 84 81 81 79 74 70 64 56 49 45 42 42 41 41 40 41 42 51 58 57 63 66 68 70 73 76 78 79 78 72 70 74 76 77 79
88 80 82 81 82 83 87 85 82 80 78 77 76 71 67 62 53 45 41 39 36 35 37 37 36 38 41 47 52 53 59 65 62 69 71 74 72 73 77 70 59 66 71 77 79
75 75 75 75 77 79 77 76 75 74 75 73 69 65 58 50 44 39 37 35 33 31 31 32 32 34 42 43 46 47 53 61 64 65 66 70 69 71 66 56 57 58 65 67 67

GFSSW_250_spd_129.txt.gz
Wind_Speed
52 52 55 55 52 49 50 49 47 46 46 49 47 44 47 46 44 43 46 47 47 45 45 48 49 47 43 46 46 44 36 35 41 46 47 51 52 53 47 49 54 58 56 51 54
48 52 57 58 60 57 54 53 53 53 51 46 48 47 47 51 49 48 48 50 50 51 50 46 48 49 48 49 49 48 43 46 51 48 45 50 53 57 50 51 55 60 63 57 57
57 57 57 57 57 58 60 60 57 55 54 53 49 51 49 54 54 50 53 55 54 54 54 53 55 56 53 53 52 53 46 50 50 52 52 52 52 56 55 53 57 61 66 66 60
55 59 56 57 58 58 49 54 59 61 60 58 57 56 56 57 58 55 55 61 61 60 59 60 63 62 59 58 60 57 58 55 55 56 58 58 60 59 59 57 59 62 65 62 62
56 56 58 57 59 63 61 55 52 54 56 56 58 60 58 61 60 58 61 63 64 67 69 67 65 65 67 62 64 63 63 63 60 63 64 64 61 61 60 64 63 64 65 66 63
58 60 58 59 57 60 63 63 65 62 61 61 62 64 64 66 63 65 66 67 69 71 72 74 74 73 68 72 74 74 69 70 70 68 69 73 67 67 63 75 72 72 71 70 67
62 63 61 62 60 58 59 61 62 62 64 66 68 68 67 70 68 70 68 68 68 69 74 76 78 80 81 78 81 82 80 77 73 78 79 83 76 72 73 79 84 82 79 75 71
61 66 65 63 65 63 63 62 62 63 64 65 67 68 69 70 70 70 71 73 73 73 75 76 78 79 82 82 80 84 84 81 83 87 85 93 81 80 81 86 87 87 85 80 77
64 62 66 67 63 64 67 68 70 68 67 68 69 69 71 74 75 75 78 78 79 82 81 81 84 85 88 89 88 92 91 92 87 93 95 101 96 88 91 94 93 89 90 90 85
66 65 66 68 68 67 68 72 76 76 74 74 72 73 75 77 79 79 82 82 84 84 86 88 91 94 96 99 95 100 101 101 97 101 110 110 112 96 102 104 100 98 97 96 93
71 72 69 71 74 74 75 77 78 80 81 79 79 78 79 82 83 83 86 86 89 91 94 97 98 99 103 104 104 108 109 105 109 112 118 121 121 110 107 105 104 102 102 99 92
78 75 77 76 79 80 79 81 82 83 84 85 84 85 85 83 85 86 88 92 93 96 100 103 104 108 108 110 115 112 109 111 109 108 112 110 105 93 97 100 99 93 93 96 90
84 82 80 80 81 81 81 84 86 85 84 85 87 88 90 89 87 89 87 94 97 100 104 106 111 113 115 113 106 99 101 101 100 97 100 104 99 90 86 88 91 87 86 86 85
88 91 87 81 83 85 83 84 85 85 87 87 89 89 91 94 95 97 99 100 103 106 109 110 112 105 101 98 101 96 95 97 93 91 89 91 91 75 77 79 84 85 80 79 79
95 92 87 83 86 84 85 84 85 85 90 88 91 93 95 96 97 98 100 103 104 106 108 107 102 100 99 95 95 93 86 91 88 86 86 68 86 57 68 69 75 82 79 78 78
101 96 92 91 89 94 90 85 85 82 86 88 86 89 94 95 96 98 100 103 101 97 97 96 98 98 96 90 87 88 85 83 82 79 81 56 73 54 65 64 73 78 81 80 80
101 100 93 95 94 93 91 92 93 85 82 83 85 85 86 87 89 90 92 96 97 97 98 97 96 96 93 86 80 83 82 78 79 73 73 58 69 52 59 66 67 71 79 83 82
98 97 92 94 93 91 92 98 102 94 87 89 88 87 87 89 90 94 96 98 101 100 97 94 85 89 87 86 77 75 77 76 75 67 64 62 55 41 62 70 66 68 75 80 84
101 94 93 92 94 98 100 101 105 102 97 93 89 89 93 94 96 95 96 98 99 99 91 88 82 77 78 85 88 70 71 72 77 69 65 56 55 50 62 60 63 66 69 72 80
107 106 102 102 102 99 106 111 110 108 100 95 95 94 94 94 93 95 95 97 94 95 91 86 76 67 74 77 80 77 66 67 69 66 64 55 53 54 58 60 54 61 64 68 77
107 108 108 113 109 107 107 108 111 109 104 99 98 97 97 97 98 98 98 96 95 93 89 83 76 61 68 71 71 75 64 62 63 64 59 56 50 53 54 58 54 55 60 62 69
104 105 105 109 110 112 111 112 107 107 107 104 101 97 97 99 98 98 97 95 92 89 84 81 73 64 65 64 61 61 60 58 61 59 55 52 48 51 54 57 53 50 60 60 66
97 98 102 106 108 105 104 105 105 104 102 102 100 97 97 99 97 95 93 91 87 84 79 73 71 64 59 56 53 51 50 53 54 49 49 49 52 50 56 55 56 57 61 61 65
87 87 92 94 96 98 98 99 101 98 97 94 94 95 95 91 88 88 87 85 79 77 72 67 62 55 51 49 44 42 40 45 43 38 43 49 50 47 55 55 59 63 69 69 63
79 82 82 84 87 89 90 89 89 89 87 86 85 86 84 84 85 81 82 77 73 70 67 60 52 48 45 44 38 33 36 36 34 37 39 46 45 48 56 56 64 72 71 69 53
67 69 72 73 74 77 78 78 77 76 75 76 81 79 80 80 76 79 74 70 68 65 57 50 45 43 41 40 35 31 30 32 32 36 46 47 43 47 54 54 63 68 68 64 63
55 55 57 58 58 61 63 62 64 65 69 73 73 75 76 75 73 72 68 67 62 55 49 44 41 37 37 38 35 28 29 27 30 37 42 45 43 46 56 57 62 64 60 62 56

GFSSW_250_spd_132.txt.gz
Wind_Speed
49 54 55 52 47 45 47 48 48 48 47 43 39 40 42 41 36 35 37 40 42 42 43 44 44 43 43 45 44 43 33 31 38 40 35 46 42 41 39 35 40 41 42 48 52
49 52 54 58 51 51 51 51 52 47 46 47 47 47 43 45 41 39 43 44 46 46 45 49 51 50 49 52 50 49 43 42 46 44 42 48 48 51 37 37 38 37 42 47 52
56 55 57 57 54 53 53 55 53 56 50 45 45 46 50 47 48 43 45 50 50 51 51 51 52 53 54 52 54 53 49 51 51 52 51 51 51 56 51 48 49 45 40 45 52
59 59 58 58 57 59 55 53 52 54 56 58 50 48 49 49 48 48 50 51 53 56 58 55 55 55 55 57 62 59 59 56 56 57 56 54 55 56 57 56 61 57 51 48 50
63 62 62 60 59 58 58 62 59 55 54 59 58 59 58 56 55 54 57 59 58 57 58 58 61 61 61 62 64 63 64 65 61 59 62 61 57 58 61 62 67 67 61 59 57
70 67 64 63 64 63 62 59 60 60 57 56 58 58 58 59 60 61 61 61 62 63 65 65 66 66 62 63 64 63 64 66 68 69 71 72 69 68 67 73 68 71 70 69 70
70 68 69 66 66 64 65 62 62 61 62 58 59 57 61 62 60 59 62 63 65 64 66 66 66 66 67 70 70 71 72 68 69 72 73 78 61 70 76 81 78 77 77 77 77
74 71 69 69 68 66 63 63 63 66 66 65 61 61 61 61 61 63 64 64 65 67 69 71 72 72 72 74 76 77 76 73 75 80 80 88 67 77 80 82 82 86 87 86 81
67 72 68 65 68 69 65 66 63 62 69 66 63 65 67 68 67 68 69 69 70 69 70 73 74 76 79 80 81 83 79 81 80 87 90 95 82 82 87 89 87 91 94 93 90
70 68 67 68 70 68 66 68 69 65 66 68 67 69 70 71 71 75 76 76 77 77 77 78 78 80 83 85 87 89 89 90 90 95 100 98 97 92 96 100 101 99 95 98 100
78 75 70 73 70 74 72 75 75 70 69 71 73 75 77 78 75 78 79 80 80 80 81 83 83 86 88 90 92 94 96 96 97 102 106 105 105 100 101 102 96 96 97 102 103
81 79 75 79 80 77 79 78 78 75 76 75 75 77 79 78 78 80 80 81 82 84 84 85 86 90 92 95 96 98 103 104 103 106 113 113 105 90 87 93 96 94 96 94 92
85 84 81 83 81 80 75 76 78 79 79 80 78 77 78 79 83 79 77 79 80 83 85 87 93 95 97 101 104 106 111 111 110 110 108 108 99 93 90 89 93 95 97 93 90
86 90 90 87 88 89 85 83 87 83 80 82 84 85 84 83 82 79 78 85 87 89 91 94 99 101 104 107 111 105 115 113 106 101 99 105 102 92 92 88 89 90 94 90 87
95 93 92 92 95 95 92 90 86 85 85 83 83 86 85 84 83 83 80 83 86 88 90 93 97 102 104 104 105 101 102 104 105 106 106 94 104 89 88 83 81 84 83 87 85
99 93 90 94 98 97 97 95 90 87 82 86 84 85 89 86 85 81 76 76 81 82 85 87 91 95 96 99 103 103 102 103 106 107 110 94 96 93 70 70 78 81 80 81 78
99 97 101 91 87 85 89 98 89 89 89 90 89 91 91 92 90 90 92 94 86 87 89 89 93 100 101 102 104 105 106 102 102 101 105 92 92 78 63 64 76 82 78 72 76
105 103 105 100 100 97 104 96 98 93 95 91 93 96 97 95 96 97 102 94 91 93 91 91 93 98 104 104 102 102 102 102 101 92 91 86 78 65 71 62 66 72 73 68 69
109 109 107 103 104 102 100 97 102 97 97 96 96 96 97 98 102 104 108 101 98 99 98 97 95 96 96 100 106 96 92 90 92 86 81 72 77 69 61 58 56 63 67 62 64
110 110 105 108 105 104 101 104 105 107 104 95 93 98 102 101 105 111 112 109 111 110 105 97 92 94 92 90 85 97 85 80 81 81 73 69 74 62 54 53 55 57 60 59 56
111 107 106 108 103 104 100 103 106 106 104 106 108 108 108 110 115 117 120 120 121 117 107 101 96 86 81 77 75 84 80 75 75 76 70 66 70 53 47 49 51 51 57 58 58
110 109 105 105 105 101 102 102 103 103 107 107 111 112 113 117 119 120 124 125 120 107 101 98 89 80 76 72 70 70 72 70 69 69 61 57 58 48 41 46 49 52 57 60 58
103 104 101 98 100 98 97 98 101 102 105 106 107 114 115 118 122 119 116 108 104 98 95 88 84 75 73 71 64 63 59 57 56 55 53 41 39 37 37 45 49 56 58 58 60
87 88 89 87 90 89 92 92 95 98 101 99 102 106 110 112 106 103 101 98 95 90 81 77 75 69 66 64 56 52 48 49 48 45 41 33 37 36 39 46 54 58 64 63 58
68 68 70 71 75 77 78 80 82 83 84 87 90 89 92 94 92 92 90 85 79 77 74 71 68 63 56 51 45 43 42 43 39 35 35 33 39 39 42 49 56 61 64 62 63
52 53 55 58 60 60 62 65 69 71 75 78 77 79 82 85 83 81 75 74 72 69 67 62 63 58 46 44 41 36 37 37 37 32 33 31 39 41 47 52 57 60 64 63 66
47 48 49 51 54 56 59 59 60 62 63 66 66 68 68 67 67 67 69 68 65 63 62 57 55 50 44 41 38 33 33 34 31 29 31 32 38 44 49 50 55 56 57 60 63

GFSSW_250_spd_135.txt.gz
Wind_Speed
50 47 47 47 47 42 48 48 50 47 45 45 43 40 40 39 37 39 41 38 36 36 36 37 36 37 37 38 37 38 33 36 44 44 42 52 48 47 41 38 33 29 25 28 34
55 52 50 52 52 51 52 56 55 51 48 48 47 47 46 43 39 42 45 45 44 43 41 40 40 42 43 44 40 41 38 41 45 46 46 50 50 55 48 46 45 37 33 30 29
59 58 54 53 56 60 54 55 56 52 53 49 46 46 48 47 48 48 46 46 44 43 44 45 44 48 49 48 46 43 40 45 47 53 52 50 53 57 55 54 56 49 47 44 37
61 60 60 60 59 61 60 58 56 59 57 52 51 51 50 49 49 51 53 52 51 51 52 53 52 51 48 48 51 48 50 52 52 54 54 54 56 59 59 58 63 59 56 54 52
64 66 65 64 65 63 63 61 60 61 59 58 56 55 55 53 53 54 53 51 49 52 56 58 59 57 58 58 59 58 58 57 55 55 55 55 57 58 63 62 61 69 62 63 63
69 66 69 67 66 67 67 67 61 62 64 62 61 61 60 58 58 57 58 55 55 57 58 58 59 56 58 60 63 61 61 62 61 62 62 61 58 57 57 67 64 66 69 65 67
74 69 72 70 69 68 69 67 63 62 66 63 63 62 62 63 61 61 61 58 57 58 60 62 62 63 61 64 65 66 66 67 70 73 70 68 57 63 64 64 64 67 68 73 70
78 73 68 71 73 71 70 69 70 68 67 66 65 63 59 60 63 65 67 64 64 62 64 64 65 67 67 68 68 68 67 68 72 73 74 74 55 67 70 71 72 74 76 79 83
77 75 73 68 68 71 70 66 67 68 66 67 70 67 65 63 64 64 67 67 65 68 70 71 72 76 78 77 77 77 73 73 75 78 82 81 69 70 76 79 78 81 84 86 88
75 74 71 67 64 64 67 67 67 67 65 67 66 67 66 64 67 68 67 69 71 72 73 75 77 80 80 78 81 83 82 82 83 86 89 88 81 79 83 85 84 86 89 93 95
79 76 75 70 66 68 72 73 72 71 71 71 70 72 74 74 72 73 72 71 74 76 75 76 78 80 80 82 82 79 79 79 83 89 90 92 88 84 90 93 94 96 98 99 99
86 83 81 80 83 80 81 78 79 76 73 73 73 76 79 81 77 76 76 74 75 75 74 73 75 76 79 80 80 82 82 83 84 90 97 97 94 91 96 100 99 99 100 98 95
89 85 84 86 83 83 87 86 82 79 77 75 75 77 77 80 73 77 82 85 84 81 80 83 86 81 82 83 85 87 89 88 90 94 99 102 96 95 94 93 94 94 93 94 95
89 88 83 86 86 89 87 84 88 85 82 80 79 80 77 74 82 80 79 83 85 88 87 88 86 88 89 83 80 83 87 89 91 93 94 97 99 85 91 93 96 98 99 97 99
94 91 79 86 87 94 96 92 93 88 93 90 87 85 85 84 83 84 84 82 83 84 81 86 87 90 85 82 84 85 87 88 93 98 103 90 110 90 93 95 98 101 101 100 99
99 96 92 95 90 99 93 91 96 96 96 91 86 84 87 87 85 87 86 85 90 83 83 88 94 95 94 95 92 92 92 92 93 97 102 99 107 96 92 94 95 97 98 97 95
106 103 99 99 100 96 98 101 101 96 84 92 96 99 90 85 80 81 86 90 85 88 85 90 98 99 101 103 102 101 98 96 98 101 103 101 103 101 97 97 94 93 90 89 88
112 107 105 105 106 105 101 103 103 102 105 104 100 94 96 94 85 87 90 92 91 90 89 98 99 104 108 106 101 105 101 102 103 100 100 101 101 97 99 96 91 86 80 76 78
117 114 111 111 110 111 111 107 109 105 100 102 101 101 102 105 105 106 94 93 103 104 103 100 102 109 113 113 111 109 108 111 109 102 103 94 92 96 92 88 84 74 72 69 70
123 118 119 114 117 115 112 113 109 109 109 101 102 103 104 109 108 108 109 112 111 107 111 112 114 118 123 119 116 110 115 110 110 108 101 91 86 82 83 80 67 64 65 66 62
119 120 117 116 114 115 111 109 110 110 109 108 105 106 106 106 109 112 108 110 110 117 118 119 120 122 123 117 115 118 108 101 96 94 93 87 81 75 72 64 54 57 58 59 55
117 112 109 108 105 106 104 106 108 107 108 110 109 104 107 109 108 109 111 110 110 113 118 116 119 116 114 112 109 106 101 87 82 78 81 79 70 66 63 52 49 50 51 52 48
105 101 104 103 101 103 102 107 107 108 105 105 105 104 105 104 104 105 106 106 106 110 110 114 114 110 106 100 97 94 85 78 72 70 70 65 59 52 49 44 46 48 45 44 43
91 94 97 97 97 98 101 97 100 100 99 97 97 94 100 97 97 96 96 98 99 99 100 101 99 97 94 91 85 77 74 72 69 63 56 49 43 45 42 41 44 44 43 43 43
75 77 81 85 88 92 89 86 87 88 86 84 81 81 80 79 79 78 80 82 85 89 91 92 93 86 82 75 72 68 64 57 56 48 45 38 38 40 38 42 44 45 47 49 52
58 57 60 63 64 67 66 66 67 65 60 60 58 60 62 65 68 71 74 77 79 83 84 80 78 73 69 66 64 58 49 44 41 38 38 33 35 37 39 43 47 50 51 52 53
49 52 52 52 53 51 49 49 47 47 47 48 53 55 57 60 63 66 67 69 71 73 71 68 66 65 62 59 55 46 38 40 38 35 30 29 33 35 38 42 48 54 56 59 58

GFSSW_250_spd_138.txt.gz
Wind_Speed
50 49 49 48 48 48 46 51 51 50 48 46 44 42 44 42 40 38 38 37 37 38 38 36 34 35 36 36 33 34 27 30 40 44 45 49 45 44 41 39 38 35 30 30 30
57 52 49 51 52 49 50 49 52 52 52 52 51 51 45 45 40 43 40 40 41 42 41 37 36 36 39 37 36 38 34 38 43 45 43 50 48 51 46 44 48 44 38 37 35
64 58 54 48 54 54 51 54 52 53 54 57 56 52 50 47 43 44 45 46 44 44 43 47 46 46 44 42 43 40 36 44 43 45 45 45 52 53 52 49 53 52 51 43 43
66 66 57 50 51 56 52 54 55 57 56 58 58 56 57 55 54 52 48 48 50 49 49 47 46 47 49 50 52 49 50 50 50 52 52 52 52 56 55 54 58 55 56 55 51
67 68 64 57 51 53 56 55 55 55 59 61 59 58 59 59 57 56 54 56 57 54 53 54 50 46 48 49 50 49 50 53 54 55 56 55 56 54 55 57 57 59 57 55 55
72 69 67 60 60 53 57 59 56 57 59 59 62 62 60 59 59 57 60 60 58 59 59 58 57 53 52 54 53 52 53 55 55 56 55 55 55 55 55 64 63 64 65 64 59
72 73 70 68 64 64 60 60 57 56 59 64 63 63 61 62 61 59 59 58 58 60 60 59 61 62 60 62 61 59 58 58 61 63 60 59 56 61 66 68 66 65 66 68 67
70 74 74 70 70 64 67 64 62 59 60 61 66 61 63 63 61 62 63 65 65 63 62 61 59 63 64 66 65 66 66 67 69 69 70 68 61 65 69 70 70 72 70 69 72
70 70 71 69 73 70 67 67 66 65 69 68 67 63 60 63 67 61 63 65 66 66 65 62 63 63 64 66 67 69 70 72 73 75 73 71 65 69 75 77 75 76 78 78 78
73 71 70 73 72 72 73 69 67 64 70 68 69 65 61 60 66 65 66 67 68 68 70 72 75 74 70 69 71 73 74 76 78 80 78 74 65 67 71 73 74 76 78 80 82
76 72 75 75 77 75 74 74 72 70 69 73 69 66 65 65 67 69 71 73 74 75 75 78 81 79 74 72 74 77 77 77 80 81 78 73 66 69 77 78 79 82 84 86 88
81 78 80 82 81 80 79 76 76 75 73 76 76 73 72 73 75 73 79 79 76 78 81 79 86 79 82 83 81 82 81 80 80 84 85 81 72 72 77 79 82 84 85 87 87
88 84 82 87 86 87 89 85 81 80 75 78 81 85 81 86 81 72 76 79 79 79 80 82 82 80 82 80 81 84 86 86 84 84 84 80 70 66 71 76 79 81 82 86 91
91 91 88 88 89 90 92 89 91 89 90 88 84 87 87 86 86 84 80 80 81 81 80 82 82 83 79 79 80 82 85 79 81 78 77 79 78 66 77 81 84 86 90 93 96
98 96 97 92 93 92 88 90 89 78 79 86 80 80 83 86 85 90 87 85 86 84 86 85 91 90 89 88 84 91 87 86 88 87 89 91 91 65 83 85 89 93 95 100 104
105 103 100 98 94 91 85 85 94 85 87 83 76 77 82 83 83 80 76 88 88 88 96 100 94 94 91 90 91 93 90 92 94 98 100 99 96 83 89 85 90 94 97 98 99
112 110 106 104 101 99 99 102 100 95 88 87 85 89 90 85 90 81 88 85 92 97 100 98 95 98 103 85 94 104 107 102 106 112 110 107 103 105 103 98 94 93 96 95 95
117 114 112 108 108 104 104 104 101 96 94 93 95 95 99 97 98 99 101 102 103 101 106 106 109 108 100 104 110 111 108 113 120 121 116 116 117 113 101 94 94 92 89 87 85
122 119 115 115 112 108 109 103 101 99 99 98 100 98 100 103 106 106 104 103 106 111 108 106 107 112 117 118 116 117 120 124 123 120 117 112 110 101 96 93 90 87 80 78 73
124 124 118 118 115 114 111 109 105 102 103 103 104 101 102 105 109 112 109 108 107 111 112 110 110 110 116 118 117 114 117 119 121 119 111 105 100 94 89 84 79 75 71 70 67
125 124 118 116 117 113 112 107 110 109 109 110 111 108 106 107 111 112 111 108 107 108 108 110 111 112 111 114 115 112 112 112 107 106 100 92 91 88 80 70 70 70 65 64 63
120 119 118 118 118 113 110 107 109 111 112 109 106 101 103 106 108 111 111 109 106 106 107 107 109 109 107 107 107 104 102 99 93 93 93 91 80 76 73 70 66 61 59 58 55
116 118 119 116 113 111 112 106 105 104 107 107 105 101 101 103 104 107 105 103 104 105 104 104 100 100 97 94 93 92 88 91 88 83 83 78 72 70 67 62 56 53 52 49 46
104 106 111 109 108 107 106 106 106 106 102 101 101 101 101 101 100 101 101 96 95 90 84 82 84 84 86 86 87 89 86 81 79 76 76 73 68 63 58 52 49 47 45 43 41
83 87 96 99 99 99 96 97 100 97 95 92 94 95 95 94 93 91 88 84 75 71 69 73 76 78 82 81 83 82 79 73 69 68 67 66 58 55 48 44 43 43 42 41 42
63 64 68 71 75 78 83 81 81 83 83 81 81 82 81 76 73 72 65 60 61 63 68 72 76 77 76 73 73 72 69 67 65 62 56 53 47 45 40 36 38 39 39 41 45
55 56 60 63 63 67 68 70 70 71 70 69 69 68 64 60 54 52 52 57 60 64 67 70 71 71 71 71 66 64 62 60 57 52 43 43 41 41 36 33 36 37 39 40 48